Regional Weather Roundup
Issued by NWS Kansas City/Pleasant Hill, MO

Home | Current Version | Previous Version | Graphics & Text | Print | Product List | Glossary Off
Versions: 1 2 3 4 5 6 7 8 9 10 11 12 13 14 15 16 17 18 19 20 21 22 23 24 25 26 27 28 29 30 31 32 33 34 35 36 37 38 39 40 41 42 43 44 45 46 47 48 49 50

000
ASUS43 KEAX 300604
RWREAX

WEATHER ROUNDUP FOR EASTERN KANSAS AND NORTHWEST MISSOURI
NATIONAL WEATHER SERVICE KANSAS CITY/PLEASANT HILL MO
100 AM CDT WED JUL 30 2014

KSZ040-057-103>105-MOZ028-029-037-043-300700-
...KANSAS CITY METROPOLITAN AREA...

CITY           SKY/WX    TMP DP  RH WIND       PRES   REMARKS
K.C. INTL      PTCLDY    68  59  73 NE5       30.11F
6HR MIN TEMP:  67; 6HR MAX TEMP:  80;

K.C. DOWNTOWN  PTCLDY    72  58  61 NE3       30.10S
6HR MIN TEMP:  71; 6HR MAX TEMP:  81;

LEES SUMMIT    PTCLDY    67  58  72 CALM      30.12R
6HR MIN TEMP:  65; 6HR MAX TEMP:  80;

OLATHE - IXD   MOCLDY    71  59  65 E3        30.12S
6HR MIN TEMP:  68; 6HR MAX TEMP:  80;

OLATHE - OJC   MOCLDY    71  58  63 E3        30.11S
6HR MIN TEMP:  69; 6HR MAX TEMP:  81;

LAWRENCE       CLOUDY    68  62  81 CALM      30.11S

$$

MOZ001>008-011>017-020>025-030>033-038>040-044>046-053-054-300700-
...NORTHERN AND CENTRAL MISSOURI...

CITY           SKY/WX    TMP DP  RH WIND       PRES   REMARKS
ST. JOSEPH     CLEAR     61  59  93 N3        30.12S
6HR MIN TEMP:  60; 6HR MAX TEMP:  79;

MOSBY          CLEAR     61  61 100 CALM      30.10F
WHITEMAN AFB   CLEAR     62  50  64 CALM      30.09F
6HR MIN TEMP:  62; 6HR MAX TEMP:  78;

CLINTON        CLEAR     64  61  88 CALM      30.10S
SEDALIA        CLEAR     65  57  75 CALM      30.11S
6HR MIN TEMP:  63; 6HR MAX TEMP:  78;

WARSAW         NOT AVBL
MARSHALL       PTCLDY    66  63  88 CALM      30.12S
CHILLICOTHE      N/A     62  58  86 CALM      30.12S
6HR MIN TEMP:  62; 6HR MAX TEMP:  77;

KIRKSVILLE     MOCLDY    59  57  93 CALM      30.12S
6HR MIN TEMP:  58; 6HR MAX TEMP:  78;


$$

MOZ041-047>049-056>058-063>065-088>090-097-300700-
...EASTERN AND SOUTHERN MISSOURI...

CITY           SKY/WX    TMP DP  RH WIND       PRES   REMARKS
ST. LOUIS INTL PTCLDY    68  57  68 CALM      30.11R
6HR MIN TEMP:  67; 6HR MAX TEMP:  78;

SPIRIT OF STL  CLOUDY    62  58  86 CALM      30.10R
COLUMBIA       MOCLDY    68  56  65 SE5       30.11S
JEFFERSON CITY CLEAR     64  57  78 CALM      30.10S
HANNIBAL       CLEAR     63  54  72 CALM      30.10S
ROLLA          MOCLDY    67  54  63 E3        30.10S
LEBANON        CLEAR     68  57  68 CALM      30.11F
OSAGE BEACH    CLEAR     63  55  77 CALM      30.10F
SPRINGFIELD    CLOUDY    71  60  68 CALM      30.10S
BRANSON          N/A     66  59  77 SW3       30.11F
NEVADA         CLOUDY    66  63  88 N3        30.11S
JOPLIN         CLOUDY    67  62  84 CALM      30.10F
WEST PLAINS    MOCLDY    66  58  75 SE3       30.13S
MALDEN         CLEAR     66  59  77 CALM      30.11S

$$

IAZ060-094-KSZ022-034>040-054-083-096-NEZ052-066-093-300700-
...KANSAS...SOUTHEAST NEBRASKA AND IOWA...

CITY           SKY/WX    TMP DP  RH WIND       PRES   REMARKS
TOPEKA         CLOUDY    70  63  78 CALM      30.12R
6HR MIN TEMP:  70; 6HR MAX TEMP:  82;

MANHATTAN      CLOUDY    73  59  61 NE7       30.12R
EMPORIA        CLOUDY    65  60  84 SE5       30.11S
CHANUTE        MOCLDY    67  62  84 CALM      30.10S
WICHITA        MOCLDY    72  61  68 E10       30.09S
OMAHA          PTCLDY    60  55  83 NW3       30.14R
LINCOLN        MOCLDY    64  57  78 N6        30.15S
FALLS CITY     CLEAR     63  57  81 CALM      30.12S
LAMONI         CLEAR     61  54  77 NW5       30.12S
DES MOINES     CLEAR     63  56  78 CALM      30.10S

$$



USA.gov is the U.S. government's official web portal to all federal, state and local government web resources and services.